Flag for Switzerland Weather past 2 weeks in Lausanne, Vaud, Switzerland

Now
34 °F

Chilly.


Feels Like: 31 °F
Forecast: 28 / 36 °F
Wind: 3 mph from East

Location: Aigle

Current Time: Jan 30, 2015 at 8:14:29 PM

Latest Report: Jan 30, 2015 at 7:00 PM


Visibility: N/A

Pressure: 29.03 "Hg

Humidity: 75%

Dew point: 27 °F

Location of LausanneLocation

Historic Weather in Lausanne — Graph

°F

Lausanne temperature yesterday

Maximum temperature yesterday: 39 °F (at 5:00 PM)
Minimum temperature yesterday: 33 °F (at 6:00 AM)
Average temperature yesterday: 36 °F

Past Weeks' High & Low Weather Summary

 TemperatureHumidityPressure
High51 °F (Jan 16, 4:00 AM)100% (Jan 17, 11:00 PM)30.42 "Hg (Jan 17, 11:00 PM)
Low22 °F (Jan 28, 6:00 AM)38% (Jan 16, 1:00 AM)29.00 "Hg (Jan 29, 11:00 PM)
Average35 °F82%29.98 "Hg
* Reported Jan 15 7:00 PM — Jan 30 7:00 PM, Lausanne, Weather by CustomWeather, © 2014

Note: Actual official high and low records may vary slightly from our data, if they occured in-between our weather recording intervals... More about our weather records

Advertising

Lausanne weather history for previous 24 hours

 ConditionsComfort  
Time TempWeatherWind HumidityBarometerVisibility
7:00 PM
Jan 30
34 °FChilly.3 mph75%29.03 "HgN/A
6:00 PM33 °FChilly.3 mph85%29.03 "HgN/A
5:00 PM33 °FChilly.1 mph83%29.03 "HgN/A
4:00 PM36 °FChilly.3 mph68%29.03 "HgN/A
3:00 PM35 °FChilly.3 mph80%29.06 "HgN/A
2:00 PM32 °FChilly.1 mph90%29.12 "HgN/A
1:00 PM32 °FChilly.2 mph90%29.15 "HgN/A
12:00 PM31 °FChilly.2 mph92%29.18 "HgN/A
11:00 AM31 °FChilly.2 mph94%29.21 "HgN/A
10:00 AM31 °FSnow. Low clouds.3 mph93%29.21 "Hg5 mi
9:00 AM35 °FChilly.3 mph57%29.18 "HgN/A
8:00 AM36 °FChilly.10 mph56%29.18 "HgN/A
7:00 AM36 °FOvercast.8 mph60%29.15 "Hg10 mi
6:00 AM36 °FChilly.14 mph58%29.12 "HgN/A
5:00 AM34 °FChilly.25 mph81%29.12 "HgN/A
4:00 AM35 °FOvercast.7 mph89%29.03 "Hg10 mi
3:00 AM36 °FChilly.6 mph92%29.03 "HgN/A
2:00 AM35 °FChilly.10 mph91%29.03 "HgN/A
1:00 AM37 °FChilly.13 mph88%29.00 "HgN/A
12:00 AM37 °FChilly.12 mph87%29.00 "HgN/A
11:00 PM
Jan 29
38 °FChilly.16 mph83%29.00 "HgN/A
9:00 PM39 °FChilly.18 mph82%29.09 "HgN/A
8:00 PM38 °FChilly.15 mph85%29.15 "HgN/A
Weather by CustomWeather, © 2014

See weather overviewHow to use our weather pages